Zurück zum Katalog

STARLINK-35612

AktivKommunikationVLEO
NORAD 66128·PAYLOAD·🇺🇸 United States

Gestartet Oct 22, 2025 von Vandenberg Space Force Base

Loading…

Nächste Überflüge (nächste 24 Stunden)

TLE

AktuellSource: CelesTrak SupGP

Epoche: Sep 15, 2026, 02:30 UTC

1 66128C 25237Q   26258.10465278 -.00045763  00000+0 -13518-2 0  2582
2 66128  53.1575 238.8672 0001219  94.8551 283.1107 15.34419784    11

Verfolge STARLINK-35612 in Echtzeit mit AllMySat

Download on the App Store